Weather History for KEEN - November, 2013

Change the Weather History Date:

Friday, November 1, 2013

  Actual Average Record
Temperature  
Mean Temperature 55 °F -  
Max Temperature 66 °F 57 °F 76 °F (1956)
Min Temperature 44 °F 31 °F 14 °F (1964)
Degree Days  
Heating Degree Days 10    
Growing Degree Days 5 (Base 50)    
Moisture  
Dew Point 52 °F    
Average Humidity 74    
Maximum Humidity 87    
Minimum Humidity 56    
Precipitation  
Precipitation 0.28 in - - ()
Sea Level Pressure  
Sea Level Pressure 29.53 in    
Wind  
Wind Speed 13 mph (SSW)    
Max Wind Speed 22 mph    
Max Gust Speed 36 mph    
Visibility 10 miles    
Events      
Averages and records for this station are not official NWS values.
T = Trace of Precipitation, MM = Missing Value Source: NWS Daily Summary

Daily Weather History Graph

Daily Weather History Graph

Search for Another Location

Airport or City:

Trip Planner

Search our weather history database for the weather conditions in past years. The results will help you decide how hot, cold, wet, or windy it might be!

Date:

Astronomy

Nov. 01, 2013 Rise Set
Actual Time 7:23 AM EDT 5:41 PM EDT
Civil Twilight 6:54 AM EDT 6:10 PM EDT
Nautical Twilight 6:20 AM EDT 6:43 PM EDT
Astronomical Twilight 5:47 AM EDT 7:16 PM EDT
Moon 5:10 AM EDT (11/1) 4:34 PM EDT (11/1)
Length of Visible Light 11h 16m
Length of Day
10h 17m
Waning Crescent, 4% of the Moon is Illuminated
Nov 1
Waning Crescent
Nov 3
New
Nov 10
First Quarter
Nov 17
Full
Nov 25
Last Quarter

Hourly Weather History & Observations

Time (EDT) Temp. Windchill Dew Point Humidity Pressure Visibility Wind Dir Wind Speed Gust Speed Precip Events Conditions
12:15 AM 59.0 °F - 53.6 °F 82% 29.72 in 10.0 mi South 16.1 mph 21.9 mph N/A   Mostly Cloudy
12:35 AM 59.0 °F - 51.8 °F 77% 29.71 in 10.0 mi South 9.2 mph 17.3 mph N/A   Overcast
12:55 AM 59.0 °F - 53.6 °F 82% 29.69 in 10.0 mi South 13.8 mph 18.4 mph 0.01 in   Overcast
1:15 AM 59.0 °F - 53.6 °F 82% 29.68 in 10.0 mi South 13.8 mph 18.4 mph N/A   Overcast
1:35 AM 59.0 °F - 53.6 °F 82% 29.67 in 10.0 mi SSW 17.3 mph 25.3 mph N/A   Overcast
1:55 AM 59.0 °F - 53.6 °F 82% 29.66 in 10.0 mi SSW 17.3 mph 29.9 mph 0.02 in   Overcast
2:15 AM 59.0 °F - 53.6 °F 82% 29.65 in 10.0 mi SSW 18.4 mph 26.5 mph 0.02 in   Overcast
2:35 AM 59.0 °F - 53.6 °F 82% 29.64 in 10.0 mi SSW 18.4 mph 24.2 mph 0.03 in   Overcast
2:55 AM 59.0 °F - 53.6 °F 82% 29.63 in 10.0 mi SSW 13.8 mph 21.9 mph 0.04 in   Overcast
3:15 AM 60.8 °F - 53.6 °F 77% 29.62 in 10.0 mi SSW 16.1 mph 23.0 mph 0.01 in   Overcast
3:35 AM 60.8 °F - 53.6 °F 77% 29.60 in 10.0 mi South 15.0 mph 24.2 mph 0.02 in   Overcast
3:55 AM 60.8 °F - 53.6 °F 77% 29.60 in 10.0 mi SSW 16.1 mph 25.3 mph 0.02 in   Overcast
4:15 AM 60.8 °F - 53.6 °F 77% 29.60 in 10.0 mi SSW 17.3 mph 31.1 mph N/A   Overcast
4:35 AM 60.8 °F - 53.6 °F 77% 29.58 in 10.0 mi SSW 17.3 mph 24.2 mph N/A   Overcast
4:55 AM 60.8 °F - 53.6 °F 77% 29.57 in 10.0 mi SSW 17.3 mph 27.6 mph N/A   Overcast
5:15 AM 62.6 °F - 55.4 °F 77% 29.55 in 10.0 mi South 15.0 mph 27.6 mph 0.01 in   Overcast
5:35 AM 62.6 °F - 55.4 °F 77% 29.54 in 10.0 mi South 13.8 mph - 0.01 in   Overcast
5:55 AM 62.6 °F - 55.4 °F 77% 29.53 in 10.0 mi SSW 17.3 mph 32.2 mph 0.01 in   Overcast
6:15 AM 62.6 °F - 55.4 °F 77% 29.53 in 10.0 mi South 16.1 mph 24.2 mph N/A   Overcast
6:35 AM 62.6 °F - 55.4 °F 77% 29.52 in 10.0 mi SSW 18.4 mph 26.5 mph N/A   Overcast
6:55 AM 62.6 °F - 55.4 °F 77% 29.50 in 10.0 mi South 19.6 mph 28.8 mph 0.01 in   Overcast
7:15 AM 64.4 °F - 55.4 °F 73% 29.50 in 10.0 mi SSW 18.4 mph 31.1 mph N/A   Overcast
7:35 AM 64.4 °F - 55.4 °F 73% 29.49 in 10.0 mi SSW 20.7 mph 31.1 mph N/A   Overcast
7:55 AM 64.4 °F - 55.4 °F 73% 29.49 in 10.0 mi SSW 21.9 mph 31.1 mph N/A   Overcast
8:15 AM 64.4 °F - 55.4 °F 73% 29.50 in 8.0 mi SSW 20.7 mph 29.9 mph N/A   Overcast
8:35 AM 64.4 °F - 57.2 °F 77% 29.49 in 10.0 mi South 18.4 mph 26.5 mph N/A   Overcast
8:55 AM 64.4 °F - 55.4 °F 73% 29.48 in 10.0 mi South 15.0 mph 23.0 mph N/A   Overcast
9:15 AM 64.4 °F - 57.2 °F 77% 29.48 in 10.0 mi South 19.6 mph 26.5 mph N/A   Overcast
9:35 AM 66.2 °F - 57.2 °F 73% 29.46 in 10.0 mi SSW 18.4 mph 27.6 mph N/A   Overcast
9:55 AM 66.2 °F - 57.2 °F 73% 29.44 in 10.0 mi South 20.7 mph 34.5 mph N/A   Overcast
10:15 AM 66.2 °F - 57.2 °F 73% 29.43 in 10.0 mi South 18.4 mph 35.7 mph N/A   Overcast
10:35 AM 66.2 °F - 57.2 °F 73% 29.41 in 10.0 mi South 20.7 mph 27.6 mph N/A   Overcast
10:55 AM 64.4 °F - 57.2 °F 77% 29.40 in 7.0 mi South 20.7 mph 29.9 mph N/A   Overcast
11:15 AM 64.4 °F - 57.2 °F 77% 29.46 in 3.0 mi WNW 13.8 mph 32.2 mph 0.02 in   Mostly Cloudy
11:35 AM 62.6 °F - 55.4 °F 77% 29.48 in 10.0 mi West 3.5 mph 26.5 mph 0.11 in   Overcast
11:55 AM 62.6 °F - 57.2 °F 82% 29.48 in 10.0 mi Calm Calm - 0.14 in   Overcast
12:15 PM 62.6 °F - 55.4 °F 77% 29.46 in 10.0 mi South 9.2 mph 17.3 mph 0.01 in   Mostly Cloudy
12:35 PM 62.6 °F - 55.4 °F 77% 29.46 in 10.0 mi South 10.4 mph - 0.02 in   Mostly Cloudy
12:55 PM 62.6 °F - 53.6 °F 72% 29.43 in 10.0 mi South 10.4 mph 16.1 mph 0.03 in   Overcast
1:15 PM 60.8 °F - 55.4 °F 82% 29.44 in 10.0 mi SSW 6.9 mph - N/A   Mostly Cloudy
1:35 PM 62.6 °F - 55.4 °F 77% 29.44 in 10.0 mi SSW 8.1 mph - N/A   Overcast
1:55 PM 62.6 °F - 53.6 °F 72% 29.44 in 10.0 mi SSW 11.5 mph - N/A   Mostly Cloudy
2:15 PM 62.6 °F - 53.6 °F 72% 29.43 in 10.0 mi South 12.7 mph 17.3 mph N/A   Partly Cloudy
2:35 PM 64.4 °F - 53.6 °F 68% 29.43 in 10.0 mi SSW 13.8 mph 18.4 mph N/A   Clear
2:55 PM 64.4 °F - 53.6 °F 68% 29.44 in 10.0 mi SSW 15.0 mph 21.9 mph N/A   Clear
3:15 PM 66.2 °F - 51.8 °F 60% 29.44 in 10.0 mi SSW 16.1 mph 25.3 mph N/A   Clear
3:35 PM 66.2 °F - 51.8 °F 60% 29.44 in 10.0 mi SSW 15.0 mph 24.2 mph N/A   Partly Cloudy
3:55 PM 66.2 °F - 51.8 °F 60% 29.45 in 10.0 mi SSW 16.1 mph 24.2 mph N/A   Partly Cloudy
4:15 PM 66.2 °F - 50.0 °F 56% 29.45 in 10.0 mi SW 11.5 mph 20.7 mph N/A   Partly Cloudy
4:35 PM 66.2 °F - 50.0 °F 56% 29.47 in 10.0 mi SW 12.7 mph 21.9 mph N/A   Partly Cloudy
4:55 PM 64.4 °F - 50.0 °F 59% 29.47 in 10.0 mi SSW 12.7 mph - N/A   Partly Cloudy
5:15 PM 64.4 °F - 48.2 °F 56% 29.47 in 8.0 mi SSW 9.2 mph - N/A   Clear
5:35 PM 62.6 °F - 48.2 °F 59% 29.48 in 10.0 mi SSW 6.9 mph - N/A   Clear
5:55 PM 60.8 °F - 48.2 °F 63% 29.48 in 10.0 mi South 8.1 mph - N/A   Clear
6:15 PM 60.8 °F - 48.2 °F 63% 29.48 in 10.0 mi South 8.1 mph - N/A   Clear
6:35 PM 57.2 °F - 46.4 °F 67% 29.50 in 10.0 mi SSW 5.8 mph - N/A   Clear
6:55 PM 55.4 °F - 46.4 °F 72% 29.51 in 10.0 mi Calm Calm - N/A   Clear
7:15 PM 53.6 °F - 46.4 °F 77% 29.52 in 10.0 mi Calm Calm - N/A   Clear
7:35 PM 53.6 °F - 46.4 °F 77% 29.53 in 10.0 mi Calm Calm - N/A   Clear
7:55 PM 53.6 °F - 46.4 °F 77% 29.55 in 10.0 mi Calm Calm - N/A   Clear
8:15 PM 51.8 °F - 44.6 °F 76% 29.56 in 10.0 mi Calm Calm - N/A   Clear
8:35 PM 51.8 °F - 44.6 °F 76% 29.57 in 10.0 mi Calm Calm - N/A   Clear
8:55 PM 51.8 °F - 44.6 °F 76% 29.58 in 10.0 mi Calm Calm - N/A   Clear
9:15 PM 51.8 °F - 42.8 °F 71% 29.59 in 10.0 mi South 4.6 mph - N/A   Clear
9:35 PM 50.0 °F - 44.6 °F 82% 29.60 in 10.0 mi SSW 5.8 mph - N/A   Clear
9:55 PM 50.0 °F - 44.6 °F 82% 29.61 in 10.0 mi SSW 4.6 mph - N/A   Clear
10:15 PM 50.0 °F - 42.8 °F 76% 29.62 in 10.0 mi SSW 4.6 mph - N/A   Clear
10:35 PM 51.8 °F - 44.6 °F 76% 29.63 in 10.0 mi SW 3.5 mph - N/A   Clear
10:55 PM 48.2 °F - 41.0 °F 76% 29.63 in 10.0 mi Calm Calm - N/A   Clear
11:15 PM 46.4 °F - 42.8 °F 87% 29.64 in 7.0 mi Calm Calm - N/A   Clear
11:35 PM 44.6 °F 43.1 °F 39.2 °F 81% 29.67 in 1.8 mi South 3.5 mph - N/A   Clear
11:55 PM 46.4 °F - 41.0 °F 81% 29.67 in 10.0 mi Calm Calm - N/A   Clear